Yatton Keynell, United Kingdom

10:58 PM BST on September 22, 2018 (GMT +0100)
Yatton Keynell

Weather History for 03740 - July, 2003

Change the Weather History Date:

Thursday, July 24, 2003

  Actual Average Record
Temperature  
Mean Temperature 62 °F -  
Max Temperature 68 °F 68 °F - ()
Min Temperature 55 °F 53 °F - ()
Degree Days  
Heating Degree Days 4    
Growing Degree Days 12 (Base 50)    
Moisture  
Dew Point 55 °F    
Average Humidity 82    
Maximum Humidity 100    
Minimum Humidity 52    
Precipitation  
Precipitation 0.00 in 0.08 in - ()
Sea Level Pressure  
Sea Level Pressure 29.90 in    
Wind  
Wind Speed 8 mph ()    
Max Wind Speed 18 mph    
Max Gust Speed -    
Visibility 6.2 miles    
Events Rain    
T = Trace of Precipitation, MM = Missing Value Source: Averaged Metar Reports

Daily Weather History Graph

Daily Weather History Graph

Search for Another Location

Airport or City:

Astronomy

Jul. 24, 2003 Rise Set
Actual Time 5:19 AM BST 9:08 PM BST
Civil Twilight 4:36 AM BST 9:51 PM BST
Nautical Twilight 3:37 AM BST 10:49 PM BST
Astronomical Twilight 1:53 AM BST 12:28 AM BST
Moon 1:03 AM BST (7/24) 5:30 PM BST (7/24)
Length of Visible Light 17h 14m
Length of Day
15h 49m
Waning Crescent, 22% of the Moon is Illuminated
Jul 24
Waning Crescent
Jul 29
New
Aug 5
First Quarter
Aug 12
Full
Aug 20
Last Quarter

Hourly Weather History & Observations

Time (BST) Temp. Dew Point Humidity Pressure Visibility Wind Dir Wind Speed Gust Speed Precip Events Conditions
12:50 AM 59.0 °F 57.2 °F 94% 29.89 in 6.2 mi SW 5.8 mph - N/A   Mostly Cloudy
1:50 AM 57.2 °F 57.2 °F 100% 29.89 in 6.2 mi SSW 5.8 mph - N/A   Overcast
2:50 AM 57.2 °F 55.4 °F 94% 29.89 in 6.2 mi SSW 6.9 mph - N/A Rain Light Rain Showers
3:50 AM 57.2 °F 55.4 °F 94% 29.89 in 6.2 mi SSW 8.1 mph - N/A   Scattered Clouds
4:50 AM 55.4 °F 55.4 °F 100% 29.89 in 6.2 mi SSW 5.8 mph - N/A   Mostly Cloudy
5:50 AM 55.4 °F 55.4 °F 100% 29.89 in 6.2 mi SW 8.1 mph - N/A Rain Light Rain Showers
6:50 AM 57.2 °F 55.4 °F 94% 29.89 in 6.2 mi SSW 8.1 mph - N/A   Mostly Cloudy
7:50 AM 57.2 °F 55.4 °F 94% 29.89 in 6.2 mi SSW 9.2 mph - N/A   Mostly Cloudy
8:50 AM 59.0 °F 57.2 °F 94% 29.92 in 6.2 mi SW 9.2 mph - N/A   Scattered Clouds
9:50 AM 62.6 °F 53.6 °F 72% 29.92 in 6.2 mi West 13.8 mph - N/A   Scattered Clouds
10:50 AM 62.6 °F 51.8 °F 68% 29.92 in 6.2 mi West 11.5 mph - N/A   Scattered Clouds
11:50 AM 64.4 °F 51.8 °F 64% 29.92 in 6.2 mi WSW 12.7 mph - N/A   Mostly Cloudy
12:50 PM 64.4 °F 51.8 °F 64% 29.92 in 6.2 mi SW 12.7 mph - N/A   Mostly Cloudy
1:50 PM 66.2 °F 51.8 °F 60% 29.92 in 6.2 mi WSW 15.0 mph - N/A   Mostly Cloudy
2:50 PM 68.0 °F 50.0 °F 52% 29.92 in 6.2 mi WSW 18.4 mph - N/A   Mostly Cloudy
3:50 PM 68.0 °F 53.6 °F 60% 29.92 in 6.2 mi WSW 16.1 mph - N/A   Mostly Cloudy
4:50 PM 66.2 °F 55.4 °F 68% 29.92 in 6.2 mi WSW 13.8 mph - N/A   Mostly Cloudy
5:50 PM 62.6 °F 55.4 °F 77% 29.92 in 6.2 mi WSW 12.7 mph - N/A   Mostly Cloudy
6:50 PM 62.6 °F 57.2 °F 82% 29.92 in 6.2 mi SSW 6.9 mph - N/A Rain Light Rain
7:50 PM 60.8 °F 57.2 °F 88% 29.92 in 6.2 mi SSW 5.8 mph - N/A Rain Light Rain
8:50 PM 60.8 °F 57.2 °F 88% 29.89 in 6.2 mi South 6.9 mph - N/A   Mostly Cloudy
9:50 PM 59.0 °F 55.4 °F 88% 29.89 in 6.2 mi South 8.1 mph - N/A   Mostly Cloudy
10:50 PM 59.0 °F 55.4 °F 88% 29.89 in 6.2 mi South 8.1 mph - N/A   Overcast
11:50 PM 59.0 °F 55.4 °F 88% 29.86 in 6.2 mi South 9.2 mph - N/A Rain Light Rain